Location: Unspecified
(0.0000°N, 0.0000°E)
Time: 11:15:27
(UTC+00:00)

Explorer 7 - Pass Details

Date: 20 November 2019
Orbit: 485 x 680 km, 50.3° (Epoch: 13 December)

Event Time Altitude Azimuth Distance (km) Brightness Sun altitude
Rises 07:40:33 0° 347° (NNW) 2,550 9.9 26.9°
Reaches altitude 10° 07:43:12 10° 6° (N) 1,658 9.2 27.6°
Maximum altitude 07:45:54 19° 53° (NE) 1,201 9.1 28.2°
Drops below altitude 10° 07:48:37 10° 99° (E) 1,658 10.8 28.8°
Sets 07:51:15 0° 118° (ESE) 2,550 11.4 29.4°
